Flag for U.S.A. Weather past 2 weeks in Bryan – College Station, Texas, U.S.A.

Now
37 °F

Light rain. Overcast.


Feels Like: 29 °F
Forecast: 35 / 42 °F
Wind: 13 mph from North

Location: Easterwood Field

Current Time: Dec 28, 2014 at 7:49:11 AM

Latest Report: Dec 28, 2014 at 6:53 AM


Visibility: 10 mi

Pressure: 30.21 "Hg

Humidity: 82%

Dew point: 32 °F

Location of Bryan – College StationLocation

Historic Weather in Bryan – College Station — Graph

°F

Bryan – College Station temperature yesterday

Maximum temperature yesterday: 67 °F (at 6:53 AM)
Minimum temperature yesterday: 41 °F (at 11:53 PM)
Average temperature yesterday: 52 °F

Past Weeks' High & Low Weather Summary

 TemperatureHumidityPressure
High75 °F (Dec 14, 12:53 PM)100% (Dec 13, 5:53 AM)30.35 "Hg (Dec 13, 5:53 AM)
Low34 °F (Dec 25, 4:53 AM)20% (Dec 15, 3:53 PM)29.59 "Hg (Dec 22, 3:53 PM)
Average55 °F77%30.04 "Hg
* Reported Dec 13 5:53 AM — Dec 28 5:53 AM, Bryan – College Station, Weather by CustomWeather, © 2014

Note: Actual official high and low records may vary slightly from our data, if they occured in-between our weather recording intervals... More about our weather records

Advertising

Bryan – College Station weather history for previous 24 hours

 ConditionsComfort  
Time TempWeatherWind HumidityBarometerVisibility
5:53 AM
Dec 28
37 °FOvercast.12 mph86%30.23 "Hg10 mi
4:53 AM37 °FLight rain. Mostly cloudy.14 mph89%30.24 "Hg10 mi
3:53 AM39 °FLight rain. Mostly cloudy.12 mph86%30.22 "Hg10 mi
2:53 AM40 °FLight rain. Overcast.12 mph80%30.24 "Hg10 mi
1:53 AM40 °FMostly cloudy.13 mph80%30.21 "Hg10 mi
12:53 AM41 °FMostly cloudy.13 mph80%30.21 "Hg10 mi
11:53 PM
Dec 27
41 °FPartly cloudy.18 mph80%30.22 "Hg10 mi
10:53 PM42 °FMostly cloudy.15 mph79%30.24 "Hg10 mi
9:53 PM42 °FOvercast.13 mph79%30.24 "Hg10 mi
9:04 PM43 °FMostly cloudy.18 mph79%30.22 "Hg10 mi
8:53 PM43 °FMostly cloudy.18 mph79%30.23 "Hg10 mi
7:53 PM44 °FMostly cloudy.14 mph79%30.20 "Hg10 mi
6:53 PM45 °FOvercast.13 mph80%30.19 "Hg10 mi
5:53 PM45 °FOvercast.18 mph80%30.17 "Hg10 mi
4:53 PM46 °FOvercast.18 mph79%30.14 "Hg10 mi
3:53 PM46 °FOvercast.20 mph79%30.13 "Hg10 mi
2:53 PM46 °FOvercast.15 mph83%30.11 "Hg10 mi
1:53 PM47 °FMostly cloudy.20 mph86%30.09 "Hg10 mi
1:02 PM48 °FMostly cloudy.16 mph86%30.08 "Hg10 mi
12:53 PM47 °FMostly cloudy.20 mph90%30.07 "Hg10 mi
11:53 AM47 °FLow clouds.15 mph93%30.10 "Hg10 mi
10:53 AM48 °FLight rain. Low clouds.18 mph89%30.09 "Hg10 mi
9:53 AM49 °FLight rain. Fog.16 mph97%30.09 "Hg6 mi
8:53 AM52 °FThunderstorms. Fog.17 mph97%30.04 "Hg5 mi
8:00 AM66 °FLight rain. Fog.No wind100%30.03 "Hg2 mi
Weather by CustomWeather, © 2014

See weather overviewHow to use our weather pages